DH4SBM Weather Reports


Display with metric or nautical units.
time (UTC)temp
F
wind
direction
speed
MPH
gust
MPH
rain 1hr
in
rain 24hr
in
rain mn
in
humidity
%
barometer
mb
20260507144840 56 338 4.0 7.0 0.01 0.29 0.15 75 1016.7
20260507143840 56 338 4.0 9.0 0.00 0.28 0.14 76 1016.7
20260507142840 55 338 6.0 10.0 0.00 0.28 0.14 77 1016.7
20260507141840 55 338 6.0 9.0 0.00 0.28 0.14 77 1016.8
20260507140840 54 338 6.0 11.0 0.00 0.28 0.14 77 1016.8
20260507135840 54 315 7.0 12.0 0.00 0.28 0.14 77 1016.9
20260507134840 55 315 6.0 11.0 0.00 0.28 0.14 76 1016.9
20260507133840 55 315 4.0 11.0 0.00 0.28 0.14 77 1016.8
20260507132840 54 338 4.0 8.0 0.00 0.28 0.14 79 1016.8
20260507131840 53 315 3.0 7.0 0.00 0.28 0.14 81 1016.7
20260507130840 53 292 4.0 8.0 0.00 0.28 0.14 81 1016.6
20260507125840 53 292 4.0 9.0 0.00 0.28 0.14 81 1016.7
20260507124840 53 292 3.0 9.0 0.00 0.28 0.14 82 1016.8
20260507123840 53 315 4.0 10.0 0.00 0.28 0.14 82 1016.7
20260507122840 52 315 3.0 8.0 0.00 0.28 0.14 83 1016.6
20260507121840 52 338 4.0 6.0 0.00 0.28 0.14 83 1016.4
20260507120840 52 315 4.0 9.0 0.00 0.28 0.14 83 1016.5
20260507115840 52 292 6.0 12.0 0.00 0.28 0.14 81 1016.4
20260507114840 53 338 5.0 11.0 0.00 0.28 0.14 81 1016.4
20260507113840 53 315 6.0 11.0 0.00 0.28 0.14 81 1016.3
20260507112840 53 315 5.0 10.0 0.00 0.28 0.14 81 1016.3
20260507111838 53 315 6.0 11.0 0.00 0.28 0.14 79 1016.3
20260507110838 53 292 6.0 11.0 0.00 0.28 0.14 80 1016.2
20260507105838 54 315 6.0 11.0 0.00 0.28 0.14 79 1016.2
20260507104838 54 315 6.0 12.0 0.00 0.28 0.14 79 1016.3
20260507103838 54 270 7.0 14.0 0.00 0.28 0.14 81 1016.4
20260507102838 53 270 4.0 9.0 0.00 0.28 0.14 82 1016.4
20260507101838 52 270 8.0 12.0 0.00 0.28 0.14 82 1016.3
20260507100838 52 270 7.0 14.0 0.00 0.28 0.14 83 1016.3
20260507095043 51 248 9.0 14.0 0.00 0.28 0.14 89 1016.1
20260507094042 51 248 7.0 14.0 0.00 0.28 0.14 91 1016.0
20260507093541 51 248 7.0 14.0 0.00 0.28 0.14 91 1016.0
20260507091542 49 270 5.0 9.0 0.00 0.28 0.14 94 1015.6
20260507090542 49 270 5.0 9.0 0.00 0.28 0.14 94 1015.6
20260506204541 51 202 3.0 8.0 0.06 0.13 0.13 93 1010.5
20260506203541 51 202 4.0 8.0 0.06 0.13 0.13 93 1010.5
20260506202541 51 225 4.0 10.0 0.06 0.13 0.13 93 1010.2
20260506201541 52 202 3.0 6.0 0.06 0.12 0.12 93 1010.1
20260506200541 52 202 4.0 8.0 0.07 0.11 0.11 92 1010.2
20260506195541 52 180 4.0 9.0 0.07 0.10 0.10 92 1010.1
20260506194541 52 180 4.0 8.0 0.06 0.08 0.08 92 1009.9
20260506193541 52 202 4.0 7.0 0.05 0.07 0.07 92 1009.8
20260506192541 53 202 3.0 9.0 0.05 0.06 0.06 92 1009.6
20260506191541 53 202 4.0 11.0 0.04 0.06 0.06 91 1009.4
20260506190541 53 180 4.0 8.0 0.03 0.04 0.04 91 1009.4
20260506185541 53 202 3.0 9.0 0.02 0.03 0.03 91 1009.2
20260506184541 53 202 4.0 10.0 0.02 0.02 0.02 91 1009.0
20260506183544 53 202 5.0 10.0 0.02 0.02 0.02 90 1009.0
20260506182544 54 180 4.0 10.0 0.01 0.02 0.02 90 1008.9
20260506181544 54 202 3.0 8.0 0.01 0.02 0.02 90 1008.7
20260506180544 54 202 3.0 9.0 0.00 0.01 0.01 90 1008.7
20260506175544 54 202 2.0 5.0 0.01 0.03 0.01 90 1008.7
20260506174544 54 225 2.0 5.0 0.01 0.03 0.01 89 1008.5
20260506173544 54 225 3.0 7.0 0.01 0.03 0.01 89 1008.5
20260506172544 54 225 3.0 8.0 0.01 0.03 0.01 89 1008.4
20260506171544 54 225 3.0 6.0 0.01 0.03 0.01 89 1008.2
20260506170546 55 225 2.0 5.0 0.01 0.03 0.01 89 1008.1
20260506165546 55 225 2.0 5.0 0.00 0.03 0.00 88 1008.2
20260506164544 55 248 4.0 7.0 0.00 0.03 0.00 87 1008.2
20260506163544 55 248 5.0 11.0 0.00 0.03 0.00 87 1008.3
20260506162544 55 248 5.0 11.0 0.00 0.03 0.00 86 1008.3
20260506161546 55 248 5.0 11.0 0.00 0.03 0.00 87 1008.2
20260506160546 55 248 5.0 9.0 0.00 0.03 0.00 87 1008.2
20260506155546 55 248 5.0 10.0 0.00 0.03 0.00 87 1008.1
20260506154546 55 270 3.0 8.0 0.00 0.03 0.00 87 1008.0
20260506153546 55 270 3.0 8.0 0.00 0.03 0.00 87 1008.0
20260506152546 55 270 4.0 9.0 0.00 0.03 0.00 87 1008.0
20260506151546 55 292 4.0 12.0 0.00 0.03 0.00 87 1007.8
20260506150546 55 292 7.0 14.0 0.00 0.03 0.00 87 1007.7